Flag for Poland Weather past 2 weeks in Gdynia, Poland

Now
70 °F

Passing clouds.


Feels Like: 70 °F
Forecast: 54 / 69 °F
Wind: 10 mph from Southeast

Location: Gdansk-Rebiechowo

Current Time: Sep 18, 2014 at 4:33:54 PM

Latest Report: Sep 18, 2014 at 4:00 PM


Visibility: N/A

Pressure: 30.09 "Hg

Humidity: 43%

Dew point: 46 °F

Location of GdyniaLocation

Historic Weather in Gdynia — Graph

°F

Gdynia temperature yesterday

Maximum temperature yesterday: 68 °F (at 3:00 PM)
Minimum temperature yesterday: 46 °F (at 7:00 AM)
Average temperature yesterday: 57 °F

Past Weeks' High & Low Weather Summary

 TemperatureHumidityPressure
High72 °F (Sep 5, 2:30 PM)100% (Sep 5, 6:30 AM)30.39 "Hg (Sep 5, 6:30 AM)
Low43 °F (Sep 6, 6:30 AM)33% (Sep 5, 5:00 PM)29.83 "Hg (Sep 10, 5:30 AM)
Average59 °F80%30.12 "Hg
* Reported Sep 3 3:00 PM — Sep 18 3:30 PM, Gdynia, Weather by CustomWeather, © 2014

Note: Actual official high and low records may vary slightly from our data, if they occured in-between our weather recording intervals... More about our weather records

Advertising

Gdynia weather history for previous 24 hours

 ConditionsComfort  
Time TempWeatherWind HumidityBarometerVisibility
3:30 PM
Sep 18
70 °FPassing clouds.13 mph40%30.12 "HgN/A
3:00 PM70 °FSunny.10 mph40%30.12 "Hg10 mi
2:30 PM70 °FPassing clouds.12 mph40%30.12 "HgN/A
2:00 PM70 °FPassing clouds.12 mph43%30.12 "HgN/A
1:30 PM66 °FPassing clouds.9 mph56%30.12 "HgN/A
1:00 PM66 °FSunny.12 mph56%30.15 "Hg10 mi
12:30 PM66 °FSunny.12 mph52%30.15 "Hg10 mi
12:00 PM64 °FSunny.12 mph56%30.15 "Hg10 mi
11:30 AM63 °FSunny.9 mph59%30.18 "Hg10 mi
11:00 AM63 °FSunny.8 mph59%30.18 "Hg10 mi
10:30 AM61 °FSunny.7 mph63%30.18 "Hg10 mi
10:00 AM59 °FSunny.7 mph68%30.18 "Hg10 mi
9:30 AM57 °FPassing clouds.6 mph72%30.18 "HgN/A
9:00 AM54 °FSunny.6 mph82%30.18 "Hg10 mi
8:30 AM52 °FSunny.7 mph82%30.18 "Hg10 mi
8:00 AM50 °FSunny.5 mph88%30.18 "Hg10 mi
7:30 AM48 °FSunny.3 mph87%30.18 "Hg10 mi
7:00 AM46 °FClear.3 mph87%30.18 "Hg10 mi
6:30 AM46 °FClear.3 mph93%30.18 "Hg10 mi
6:00 AM46 °FClear.3 mph87%30.18 "Hg10 mi
5:30 AM46 °FClear.5 mph87%30.18 "Hg10 mi
5:00 AM45 °FClear.6 mph93%30.18 "Hg10 mi
4:30 AM46 °FClear.5 mph87%30.18 "Hg10 mi
4:00 AM48 °FClear.5 mph87%30.18 "Hg10 mi
3:30 AM48 °FClear.5 mph87%30.18 "Hg10 mi
3:00 AM50 °FClear.5 mph82%30.18 "Hg10 mi
2:30 AM50 °FClear.5 mph82%30.18 "Hg10 mi
2:00 AM48 °FClear.5 mph87%30.18 "Hg10 mi
1:30 AM48 °FClear.6 mph87%30.18 "Hg10 mi
1:00 AM50 °FClear.6 mph82%30.18 "Hg10 mi
12:30 AM50 °FClear.6 mph82%30.18 "Hg10 mi
12:00 AM52 °FClear.5 mph82%30.18 "Hg10 mi
11:30 PM
Sep 17
54 °FClear.3 mph72%30.18 "Hg10 mi
11:00 PM54 °FClear.5 mph77%30.18 "Hg10 mi
10:30 PM54 °FClear.5 mph77%30.18 "Hg10 mi
10:00 PM54 °FClear.5 mph77%30.18 "Hg10 mi
9:30 PM54 °FClear.6 mph77%30.18 "Hg10 mi
9:00 PM55 °FClear.6 mph72%30.18 "Hg10 mi
8:30 PM55 °FClear.7 mph77%30.18 "Hg10 mi
8:00 PM57 °FClear.6 mph72%30.18 "Hg10 mi
7:30 PM59 °FPassing clouds.5 mph77%30.18 "HgN/A
7:00 PM61 °FSunny.6 mph72%30.18 "Hg10 mi
6:30 PM63 °FPassing clouds.6 mph68%30.18 "HgN/A
6:00 PM64 °FPassing clouds.7 mph64%30.18 "HgN/A
5:30 PM64 °FSunny.10 mph60%30.18 "Hg10 mi
5:00 PM66 °FPassing clouds.9 mph56%30.18 "HgN/A
4:30 PM68 °FSunny.14 mph43%30.18 "Hg10 mi
4:00 PM68 °FPassing clouds.10 mph43%30.18 "HgN/A
Weather by CustomWeather, © 2014

See weather overviewHow to use our weather pages